SCP
0 0 0 0 0 0 0 0 0 0 0 0 0 0 0 0 0 0 0 0 0 0 0 0 0 0 0 0 -0 0 1 0 0 0 0 0 0 0 0 0 -0 0 0 -0 0 1 1 0 0 0 0 0 0 0
0 0 0 0 0 0 0 0 0 0 0 0 0 0 0 0 0 0 0 0 0 0 0 0 0 0 0 0 0 0 1 1 0 1 0 0 1 0 0 0 0 0 0 0 1 1 0 0 0 0 0 0 0 0
0 0 0 0 0 0 0 0 0 0 0 0 0 0 0 0 0 0 0 0 0 0 0 0 0 0 -0 0 0 0 0 0 0 0 0 0 0 1 1 1 1 1 2 0 0 -0 0 0 0 0 0 0 0 0
0 0 0 0 0 0 0 0 0 0 0 0 0 0 0 0 0 0 0 0 0 0 0 0 -0 -0 0 0 0 0 0 0 0 -0 0 1 0 0 0 0 1 1 0 1 0 -0 -0 0 0 0 0 0 0 0
0 0 0 0 0 0 0 0 0 0 0 0 0 0 0 0 0 0 0 0 0 0 0 0 0 0 0 0 0 0 0 0 0 -0 0 0 0 0 -0 0 0 0 0 0 0 0 1 0 0 0 0 0 0 0
0 0 0 0 0 0 0 0 0 0 0 0 0 0 0 0 0 0 0 0 0 0 0 0 0 0 0 0 0 0 0 0 0 0 0 0 -0 0 0 0 0 0 0 0 0 0 0 0 0 0 0 0 0 0
0 0 0 0 0 0 0 0 0 0 0 0 0 0 0 0 0 0 0 0 0 0 0 0 0 0 0 0 0 0 0 0 1 0 0 0 0 0 0 0 0 0 0 0 0 0 0 0 0 0 0 0 0 0
0 0 0 0 0 0 0 0 0 0 0 0 0 0 0 0 0 0 0 0 0 0 0 0 0 0 0 0 0 0 0 0 0 1 2 1 0 1 1 0 0 -0 0 0 0 0 0 0 0 0 0 0 0 0
0 0 0 0 0 0 0 0 0 0 0 0 0 0 0 0 0 0 0 0 0 0 0 0 0 0 0 0 0 0 1 0 0 0 0 0 0 0 1 1 0 0 0 0 0 0 0 0 0 0 0 0 0 0
0 0 0 0 0 0 0 0 0 0 0 0 0 0 0 0 0 0 0 0 0 0 0 0 0 0 0 0 0 0 0 1 0 0 0 0 -0 1 0 0 0 0 0 0 0 0 0 0 0 0 0 0 0 0
0 0 0 0 0 0 0 0 0 0 0 0 0 0 0 0 0 0 0 0 0 0 0 0 0 0 0 0 0 0 0 0 0 -0 0 0 0 1 1 2 1 0 0 0 0 0 0 0 0 0 0 0 0 0
0 0 0 0 0 0 0 0 0 0 0 0 0 0 0 0 0 0 0 0 0 0 0 0 0 0 0 0 0 0 0 0 0 0 0 0 1 2 2 1 0 1 0 0 0 0 0 0 0 0 0 0 0 0
0 0 0 0 0 0 0 0 0 0 0 0 0 0 0 0 0 0 0 0 0 0 0 0 0 1 0 0 1 0 0 0 0 0 0 0 2 2 2 1 0 0 0 0 0 0 0 0 0 0 0 0 0 0
0 0 0 0 0 0 0 0 0 0 0 0 0 0 0 0 0 0 0 0 0 0 0 0 0 0 0 1 0 1 0 0 0 0 0 1 1 1 1 1 0 0 0 0 0 0 0 0 0 0 0 0 0 0
0 0 0 0 0 0 0 0 0 0 0 0 0 0 0 0 0 0 0 0 0 0 0 0 0 0 0 0 0 0 0 0 0 0 0 2 1 1 1 0 0 0 0 0 0 0 0 0 0 0 0 0 0 0
0 -0 0 0 0 0 0 0 0 0 0 0 0 0 0 0 0 0 0 0 0 0 0 0 0 0 0 0 0 0 0 0 0 1 1 1 0 1 1 1 1 0 0 0 0 0 0 0 0 0 0 0 0 0
-0 0 0 0 0 0 0 0 0 0 0 0 0 0 0 0 0 0 0 0 0 0 0 0 0 0 0 0 0 0 0 1 2 1 0 0 0 0 1 0 0 0 0 0 0 0 0 0 0 0 0 0 0 0
0 0 0 0 0 -0 0 0 0 0 0 0 0 0 0 0 0 0 0 0 1 0 1 0 0 0 0 0 0 0 0 1 1 1 0 1 0 1 1 0 0 0 0 0 0 0 0 0 0 0 0 0 0 0
0 0 0 -0 0 0 0 0 0 0 0 0 0 0 0 0 0 0 0 0 0 0 0 0 0 0 0 0 0 0 0 1 1 1 1 0 1 1 1 0 0 0 0 0 0 0 0 0 0 0 0 0 0 0
0 0 0 0 0 0 0 0 0 0 0 0 0 0 0 0 0 0 0 0 0 0 0 0 0 0 0 1 0 0 0 1 1 0 0 0 0 0 0 0 0 0 0 0 0 0 0 0 0 0 0 0 -0 0
0 0 0 0 0 0 0 0 0 0 0 0 0 0 0 0 0 0 0 0 0 0 0 0 0 1 1 0 -0 0 0 -0 0 0 0 0 0 0 0 0 0 0 0 0 0 0 0 0 0 0 0 0 -0 0
0 0 0 0 0 0 0 0 0 0 0 0 0 0 0 0 0 0 0 0 0 0 0 -0 -0 0 0 1 0 -0 -0 -0 0 0 0 0 0 0 0 0 0 0 0 0 0 0 0 0 0 0 0 0 0 0
0 -0 0 0 0 0 0 0 0 0 0 0 0 0 0 0 0 0 0 0 0 0 0 -0 1 1 -0 1 -0 0 -0 -0 0 0 0 0 0 0 0 0 0 0 0 0 0 0 0 0 0 0 0 0 0 0
-0 -0 -0 0 0 0 0 0 0 0 0 0 0 0 0 0 0 0 0 0 0 0 0 0 0 0 0 0 0 0 0 0 0 0 0 0 0 0 0 0 0 0 0 0 0 0 0 0 0 0 0 0 0 0
-0 0 0 0 0 0 0 0 0 0 0 0 0 0 0 0 0 0 0 0 0 0 0 0 0 0 0 0 0 0 0 0 0 0 0 0 0 0 0 0 0 0 0 0 -0 0 0 0 0 -0 0 0 0 0
0 -0 0 0 0 0 0 0 0 0 0 0 0 0 0 0 0 0 0 0 0 0 0 0 0 0 0 0 0 -0 -0 0 0 0 0 0 0 -0 0 0 0 0 0 -0 0 0 0 0 -0 -0 0 0 0 0
0 0 0 0 0 0 0 0 0 0 0 0 0 0 0 0 0 0 0 0 0 0 0 0 0 0 0 0 0 0 0 0 0 0 0 -0 -0 -0 0 -0 0 0 0 0 0 0 0 0 -0 -0 -0 0 0 0
0 0 0 -0 0 0 0 0 0 0 0 0 0 0 0 0 0 0 0 0 0 0 0 0 0 -0 0 0 0 0 0 0 0 -0 -0 0 -0 -0 -0 0 0 -0 -0 -0 0 0 0 -0 0 0 0 0 0 0
0 0 0 0 0 0 0 0 0 0 0 0 0 0 0 0 0 0 0 0 1 0 0 0 0 0 0 0 0 0 0 0 -0 -0 -0 -0 -0 0 0 -0 -0 -0 -0 -0 -0 -0 -0 -0 -0 0 0 0 0 0
0 0 0 0 0 0 0 0 0 0 0 0 0 0 -0 -0 0 0 0 1 0 0 0 -0 0 0 0 0 0 0 0 0 -0 -0 0 -0 -0 -0 0 -0 -0 0 -0 -0 -0 -0 0 0 0 0 -0 0 0 0
0 0 0 0 0 0 0 0 0 0 0 -0 0 0 0 0 0 0 0 1 1 0 0 0 0 0 0 0 0 0 0 0 0 -0 -0 -0 -0 0 0 0 0 -0 -0 -0 -0 0 0 -0 -0 -0 0 0 0 0
0 0 0 0 0 0 0 0 0 0 0 0 0 0 0 0 0 0 0 0 0 0 0 0 0 0 0 0 0 0 0 0 0 0 -0 -0 -0 0 -0 -0 0 -0 -0 -0 -0 -0 0 0 -0 0 0 0 0 0
0 0 0 0 0 0 0 0 0 0 0 0 0 0 0 0 0 0 0 0 0 0 0 0 0 0 0 0 0 0 -0 0 -0 -0 -0 -0 -0 -0 -0 0 -0 -0 0 -0 -0 -0 -0 -0 -0 0 -0 -0 0 0
Wind_Speed_500mb
25 28 32 32 31 30 31 30 30 34 38 43 28 26 28 28 16 14 10 9 22 34 63 49 32 41 35 30 13 60 22 15 21 29 20 20 20 24 23 38 42 28 29 32 7 11 13 14 23 6 11 19 18 15
31 32 33 34 33 31 31 32 31 30 32 39 42 26 25 24 14 10 9 7 21 35 53 52 60 56 40 27 13 40 29 23 26 7 11 10 10 6 32 25 25 16 7 3 10 11 19 6 27 13 15 18 16 21
32 33 34 35 33 32 32 32 31 31 30 33 40 34 30 24 17 18 28 17 28 40 57 46 48 37 30 28 22 30 9 14 24 21 5 9 10 9 9 11 16 12 25 13 19 14 35 47 17 16 25 23 24 24
34 35 37 34 33 33 33 33 33 32 30 30 33 36 38 27 21 22 25 15 14 23 18 29 29 33 16 15 15 20 17 13 17 13 12 7 2 34 18 15 11 6 28 27 26 46 38 31 29 30 31 30 31 29
32 32 30 30 31 32 34 35 35 32 30 30 31 37 41 29 23 22 26 24 20 16 15 41 42 23 22 15 11 12 13 16 21 3 16 4 11 13 29 30 9 14 14 13 16 47 23 39 35 35 36 35 32 33
33 31 29 29 30 32 34 37 36 33 30 29 32 36 40 32 17 16 6 2 14 19 17 9 14 23 30 20 15 8 7 4 11 7 8 29 50 27 8 8 21 38 31 39 33 28 49 45 38 36 38 36 32 30
35 34 34 34 33 34 34 36 33 30 30 30 32 36 39 34 19 16 9 14 28 20 11 10 10 23 30 27 26 16 4 4 4 4 11 11 3 6 2 6 30 31 28 40 39 44 43 39 40 37 37 34 32 28
36 34 33 32 33 32 33 34 33 31 32 31 34 36 38 22 17 19 18 13 12 11 15 9 11 28 36 25 20 19 16 14 0 9 15 10 14 4 4 31 32 27 36 37 33 26 32 36 40 38 37 34 31 29
34 31 30 31 32 30 31 30 31 29 29 30 34 28 13 10 9 13 20 14 15 15 15 12 16 10 44 32 28 25 25 9 4 9 7 18 7 10 20 43 37 34 26 33 20 30 36 40 41 38 34 31 29 27
28 29 32 33 30 27 30 32 27 25 23 29 16 6 11 12 15 5 5 8 12 18 18 13 38 3 25 46 16 19 25 4 9 12 52 9 35 39 46 38 39 27 21 27 33 36 41 40 39 35 31 26 26 26
29 32 33 31 28 28 27 26 22 18 12 8 7 6 5 1 5 12 13 10 18 12 21 33 42 3 29 24 17 24 9 13 16 28 21 14 15 21 38 39 33 27 20 21 27 33 35 38 37 33 28 25 26 27
29 27 27 27 29 27 23 22 14 9 13 12 19 19 8 8 12 11 13 8 10 21 21 35 44 34 56 19 20 13 10 10 9 19 8 11 9 39 42 36 32 28 28 30 33 38 36 35 32 29 27 27 28 29
25 22 25 25 23 20 17 15 13 15 12 8 8 7 9 13 11 13 17 10 10 25 27 41 28 30 7 12 10 8 15 7 3 6 10 1 34 35 38 37 34 34 36 40 39 38 36 35 30 29 29 30 32 29
19 20 19 17 15 12 8 8 10 5 4 7 7 9 10 13 14 15 19 19 25 31 23 44 38 23 12 10 6 9 10 6 14 14 22 18 39 42 38 36 40 43 43 42 41 40 37 34 32 30 32 34 31 28
21 21 20 18 14 8 5 13 7 1 6 6 8 10 17 32 22 21 13 21 16 29 22 39 27 31 16 11 9 5 7 11 12 18 5 47 49 51 46 44 45 48 45 43 40 39 36 35 34 34 32 30 28 26
25 17 14 18 18 12 8 4 5 8 7 7 12 13 27 28 18 26 4 19 23 51 16 28 12 9 12 8 10 11 11 12 12 14 40 48 47 47 52 49 52 49 46 43 38 36 36 36 35 34 31 28 26 24
8 9 10 15 12 20 16 10 9 12 10 9 16 25 39 36 30 15 16 9 19 3 12 9 4 11 8 10 15 10 21 19 37 41 35 46 54 53 50 55 54 50 45 43 41 38 35 33 34 34 33 28 25 22
15 6 13 13 3 9 7 14 7 8 15 22 18 17 19 24 14 8 7 17 15 16 14 6 16 9 15 21 10 5 32 37 43 41 35 44 51 53 55 57 53 47 48 44 41 38 36 36 36 32 30 28 25 23
14 14 15 9 5 5 7 11 12 9 14 19 25 22 17 15 13 12 7 8 7 4 14 14 13 10 6 10 11 20 40 43 40 35 39 47 55 55 56 54 50 48 45 43 42 35 34 34 29 29 29 28 25 22
13 10 10 6 7 7 7 8 9 8 12 15 13 14 12 11 15 16 15 14 15 20 15 7 4 22 33 9 29 28 27 38 54 39 39 47 51 56 56 55 50 45 39 37 33 34 32 31 28 25 27 24 26 22
6 7 6 8 9 10 9 7 12 18 14 12 5 27 10 12 13 23 16 16 18 26 12 39 15 32 26 18 40 49 24 26 11 36 46 51 51 54 51 48 48 39 35 35 34 32 31 27 26 24 25 20 17 12
5 6 7 9 7 7 11 12 12 17 15 17 9 8 10 11 12 22 10 9 27 30 30 13 27 30 24 18 20 37 46 30 28 48 44 52 57 56 53 51 47 42 32 31 31 30 28 25 24 20 24 18 11 13
7 9 8 8 6 7 12 9 9 8 8 6 14 9 10 8 11 11 7 14 24 34 26 26 28 30 40 28 36 44 38 41 39 40 44 48 55 52 51 42 39 34 31 30 34 26 27 24 27 23 20 16 19 12
17 6 6 7 13 6 9 8 11 9 11 4 6 11 11 8 4 7 12 22 25 27 28 15 6 10 12 19 30 33 30 33 37 37 43 50 55 52 43 43 36 27 35 31 25 28 30 32 27 24 18 20 18 16
6 8 8 9 8 7 7 7 11 8 7 6 6 6 5 5 6 8 16 23 33 35 31 21 19 15 18 28 35 33 28 33 41 48 52 53 48 41 35 33 31 37 24 31 28 26 20 25 27 24 19 21 18 18
9 11 11 11 8 9 7 6 6 8 6 4 7 8 5 5 7 10 9 19 24 34 31 26 24 22 23 30 31 33 33 37 33 39 40 41 40 40 39 38 35 28 34 22 25 22 29 26 27 24 21 12 11 3
8 11 14 15 9 6 7 12 12 9 7 6 4 7 6 9 11 4 8 17 19 21 21 24 9 33 8 35 31 29 28 30 29 31 28 32 40 50 40 38 35 34 34 27 25 26 29 25 25 22 18 13 16 10
12 8 10 18 14 15 6 5 9 10 6 8 7 9 6 5 4 4 10 14 16 20 25 11 21 55 36 29 30 30 30 32 34 34 33 31 28 26 25 30 36 32 34 33 22 20 22 23 24 21 15 12 8 8
10 11 12 13 17 15 19 10 9 13 11 13 5 5 4 5 17 3 10 18 22 25 29 28 34 21 32 32 29 27 28 32 35 36 36 31 29 26 26 30 31 27 22 29 27 27 26 24 17 8 11 6 6 8
10 16 9 9 7 12 13 21 11 13 12 16 11 10 7 13 11 18 22 22 35 49 58 31 39 38 33 31 30 29 28 28 29 38 42 32 30 24 20 25 28 30 26 30 22 13 13 7 8 10 9 13 9 9
9 15 9 9 7 13 20 20 20 19 16 16 23 14 16 4 40 34 28 30 34 36 37 35 36 29 29 31 31 32 30 27 27 26 27 28 26 28 29 29 29 25 25 25 23 14 16 19 21 20 18 12 10 25
8 8 6 4 5 13 20 17 17 13 10 7 9 16 7 16 13 11 8 24 40 39 38 32 31 27 23 30 28 28 27 25 27 27 29 30 29 27 24 21 21 23 20 17 19 22 25 23 23 18 15 16 10 8
14 10 11 9 9 12 14 9 10 7 6 4 14 26 18 15 8 4 13 23 32 33 37 33 30 28 12 17 29 26 23 24 24 33 31 28 28 25 22 22 22 20 20 22 23 22 21 21 19 13 10 19 7 5
Wind_Direction_500mb
325 322 317 315 317 319 322 321 329 331 334 339 325 313 310 312 310 286 235 233 286 289 285 285 279 290 317 33 34 283 305 244 210 227 244 229 212 188 147 198 230 208 178 230 175 110 115 358 321 313 110 138 127 122
322 319 316 314 311 307 312 316 318 324 326 332 337 311 310 307 301 263 280 307 294 278 272 291 283 275 264 256 206 283 298 359 20 346 43 1 324 253 191 193 210 189 115 91 61 133 164 208 236 120 158 129 136 140
316 317 316 312 310 308 305 306 312 311 320 321 330 331 313 301 296 263 263 285 319 294 293 271 265 283 243 251 249 259 74 342 30 53 59 42 301 323 36 310 123 86 76 119 111 167 164 165 170 143 137 135 128 133
312 316 315 311 307 306 307 306 303 307 306 312 320 324 323 301 291 277 268 236 295 294 285 269 247 243 247 233 245 242 278 295 290 90 101 90 346 13 18 290 337 27 140 117 113 164 162 145 155 135 126 131 132 132
305 315 318 320 317 312 309 306 303 299 299 306 310 316 324 310 293 287 273 248 242 263 308 308 309 257 227 213 227 223 229 267 295 256 100 71 21 51 250 210 270 43 286 137 111 155 150 149 142 141 138 136 135 128
300 300 307 313 318 316 314 309 308 300 297 298 304 310 319 317 293 339 270 289 222 245 281 277 307 229 208 203 222 220 256 203 244 228 93 139 160 192 270 130 135 354 68 105 117 128 132 137 140 142 138 135 132 128
301 298 296 303 306 309 310 312 309 306 299 294 299 303 312 314 273 239 270 194 205 185 246 263 232 217 204 199 218 232 244 214 110 234 208 139 192 90 62 336 85 92 110 111 111 121 125 136 138 137 135 130 128 128
302 298 296 298 302 308 301 301 305 303 304 295 300 305 308 290 259 267 254 255 188 233 256 265 257 163 194 202 202 233 282 278 30 95 1 274 146 60 351 123 151 126 118 120 118 132 140 137 136 134 134 138 136 133
303 294 294 296 299 302 300 301 300 301 305 303 302 306 273 234 224 205 238 266 244 230 295 240 251 206 181 190 198 180 184 235 244 117 341 23 194 193 201 139 150 148 145 147 126 135 142 143 142 144 148 147 143 141
304 298 295 296 296 296 292 298 303 309 312 309 308 226 215 145 223 265 193 179 210 218 233 256 252 348 196 191 145 190 198 188 196 194 133 141 261 138 142 150 148 155 145 157 142 147 148 148 151 155 156 152 151 154
304 302 298 293 292 292 288 294 297 313 336 345 287 336 342 171 191 206 211 206 213 215 215 241 245 161 275 203 158 193 196 215 181 209 181 184 220 142 134 139 147 154 159 164 157 152 156 155 155 158 155 148 151 155
307 306 303 295 295 297 277 283 284 272 285 316 300 304 283 230 220 240 183 181 250 228 203 211 225 182 245 209 177 202 191 197 252 134 181 224 75 127 135 143 151 155 155 152 150 152 151 153 155 155 149 151 154 151
310 306 307 302 301 290 274 265 257 237 289 292 258 266 217 206 235 224 187 183 219 223 204 193 215 217 151 208 72 161 234 195 216 182 193 76 128 133 137 145 149 152 151 143 146 145 148 147 149 150 150 153 150 149
313 310 310 312 304 299 273 246 214 260 211 244 245 245 229 196 223 220 213 198 221 297 189 192 198 215 154 188 142 296 195 226 196 218 225 144 146 142 144 147 151 146 142 146 145 145 146 144 144 148 153 152 151 153
319 308 299 294 304 273 250 202 208 246 266 259 244 239 229 246 280 246 169 157 174 264 205 192 193 193 181 218 161 237 175 188 206 218 54 133 147 147 148 153 150 143 144 146 147 147 145 144 148 150 151 150 154 155
311 308 306 294 271 244 205 201 202 231 252 251 240 263 270 291 291 328 226 129 164 250 207 216 206 181 208 196 131 217 193 211 210 124 128 140 147 149 150 149 143 145 148 147 146 146 146 150 153 151 150 153 156 158
2 344 337 335 284 223 221 222 226 211 224 247 245 255 278 290 282 303 321 325 257 232 181 176 275 175 40 292 151 218 218 99 105 120 138 148 150 151 149 144 144 146 147 145 146 147 149 150 152 152 153 156 158 159
347 337 341 349 119 136 185 205 260 247 233 243 246 281 275 271 292 278 332 328 343 356 358 57 334 206 131 206 229 229 121 114 109 118 138 151 150 148 148 144 144 146 143 146 150 149 151 153 154 157 158 158 158 157
312 310 316 303 242 248 209 223 221 259 252 290 272 275 272 267 252 277 325 284 316 351 338 164 221 230 178 250 181 163 141 131 128 128 141 148 146 148 146 143 145 144 147 152 153 154 157 158 158 161 162 165 164 170
288 283 290 246 266 287 270 230 215 264 270 262 292 273 252 280 256 241 247 262 244 228 200 236 269 338 110 7 35 40 82 134 127 132 136 146 149 147 148 149 148 151 152 155 153 156 158 160 165 169 170 179 188 185
351 236 221 213 277 255 275 286 224 232 265 245 358 272 252 258 258 284 232 228 237 232 241 99 315 303 46 84 60 101 43 32 124 148 153 149 154 151 152 155 151 156 157 159 161 162 164 168 171 163 156 169 179 168
279 235 263 238 266 260 259 247 264 302 268 256 231 234 294 248 266 277 219 239 247 236 251 56 17 359 40 38 87 116 171 204 212 149 156 150 151 157 153 155 159 159 162 164 165 165 170 166 163 157 166 166 156 153
241 257 248 238 255 263 268 277 251 241 257 244 204 229 253 231 230 270 263 240 238 232 235 53 336 2 321 169 150 169 177 172 139 145 149 153 150 158 154 160 162 162 162 164 161 166 166 159 159 162 160 156 161 143
252 246 239 241 211 262 291 261 238 251 278 188 231 223 238 220 159 248 262 252 231 213 215 197 220 216 148 131 114 117 126 131 134 145 147 143 153 159 159 161 162 163 159 154 169 168 167 173 168 172 167 177 177 165
218 228 222 246 226 237 240 263 210 231 244 185 247 226 274 182 206 241 240 227 217 209 205 209 230 224 152 124 119 115 128 138 141 137 146 147 151 154 164 161 162 158 157 160 186 163 168 174 174 180 181 185 182 197
220 215 208 209 206 220 211 262 257 226 189 222 253 292 349 274 244 240 248 207 223 203 197 204 211 200 161 138 132 145 143 141 144 147 162 163 161 162 151 150 144 157 159 167 164 166 169 170 180 183 178 157 187 221
230 215 212 221 235 247 244 252 277 285 228 226 257 241 226 233 227 219 205 190 193 174 187 195 197 181 69 123 132 134 135 141 138 137 140 155 146 152 161 164 164 163 163 174 173 170 176 175 186 192 195 183 176 185
239 238 222 184 204 223 284 249 205 214 218 216 254 224 246 274 8 3 162 150 161 157 194 148 155 207 254 139 135 135 135 137 136 137 136 130 132 139 142 136 142 156 179 187 171 175 179 182 186 188 193 199 181 204
232 221 206 233 216 203 210 229 215 210 210 203 240 256 297 319 307 284 139 148 141 137 128 95 174 239 130 127 133 139 140 143 147 136 125 130 127 129 143 151 163 158 148 149 152 139 137 154 148 138 158 154 182 165
231 203 220 229 224 212 225 206 212 216 216 223 242 289 277 321 214 136 146 152 150 135 130 153 139 128 131 133 133 133 135 141 146 145 147 150 140 139 149 158 163 164 159 168 171 177 188 172 190 160 152 147 158 156
209 203 226 242 254 246 236 228 229 224 216 225 230 242 231 300 72 79 113 96 106 118 129 128 118 122 131 132 139 135 129 134 134 140 144 142 140 142 144 145 148 155 161 164 164 166 165 158 157 164 153 141 130 114
162 350 322 290 303 6 141 164 164 166 172 136 148 182 192 118 79 62 68 113 121 117 113 113 118 126 136 125 134 131 130 141 138 146 147 152 144 148 151 151 149 147 146 153 155 153 160 160 158 151 107 87 112 103
124 72 316 321 348 28 45 52 49 81 76 70 133 167 141 102 76 96 124 145 142 135 138 130 134 132 98 134 132 138 132 127 138 145 152 146 147 154 153 159 147 144 153 155 153 159 166 155 136 147 141 157 157 104
Wind_Speed_850mb
25 28 32 32 31 30 31 30 30 34 38 43 28 26 28 28 16 14 10 9 22 34 63 49 32 41 35 30 13 60 22 15 21 29 20 20 20 24 23 38 42 28 29 32 7 11 13 14 23 6 11 19 18 15
31 32 33 34 33 31 31 32 31 30 32 39 42 26 25 24 14 10 9 7 21 35 53 52 60 56 40 27 13 40 29 23 26 7 11 10 10 6 32 25 25 16 7 3 10 11 19 6 27 13 15 18 16 21
32 33 34 35 33 32 32 32 31 31 30 33 40 34 30 24 17 18 28 17 28 40 57 46 48 37 30 28 22 30 9 14 24 21 5 9 10 9 9 11 16 12 25 13 19 14 35 47 17 16 25 23 24 24
34 35 37 34 33 33 33 33 33 32 30 30 33 36 38 27 21 22 25 15 14 23 18 29 29 33 16 15 15 20 17 13 17 13 12 7 2 34 18 15 11 6 28 27 26 46 38 31 29 30 31 30 31 29
32 32 30 30 31 32 34 35 35 32 30 30 31 37 41 29 23 22 26 24 20 16 15 41 42 23 22 15 11 12 13 16 21 3 16 4 11 13 29 30 9 14 14 13 16 47 23 39 35 35 36 35 32 33
33 31 29 29 30 32 34 37 36 33 30 29 32 36 40 32 17 16 6 2 14 19 17 9 14 23 30 20 15 8 7 4 11 7 8 29 50 27 8 8 21 38 31 39 33 28 49 45 38 36 38 36 32 30
35 34 34 34 33 34 34 36 33 30 30 30 32 36 39 34 19 16 9 14 28 20 11 10 10 23 30 27 26 16 4 4 4 4 11 11 3 6 2 6 30 31 28 40 39 44 43 39 40 37 37 34 32 28
36 34 33 32 33 32 33 34 33 31 32 31 34 36 38 22 17 19 18 13 12 11 15 9 11 28 36 25 20 19 16 14 0 9 15 10 14 4 4 31 32 27 36 37 33 26 32 36 40 38 37 34 31 29
34 31 30 31 32 30 31 30 31 29 29 30 34 28 13 10 9 13 20 14 15 15 15 12 16 10 44 32 28 25 25 9 4 9 7 18 7 10 20 43 37 34 26 33 20 30 36 40 41 38 34 31 29 27
28 29 32 33 30 27 30 32 27 25 23 29 16 6 11 12 15 5 5 8 12 18 18 13 38 3 25 46 16 19 25 4 9 12 52 9 35 39 46 38 39 27 21 27 33 36 41 40 39 35 31 26 26 26
29 32 33 31 28 28 27 26 22 18 12 8 7 6 5 1 5 12 13 10 18 12 21 33 42 3 29 24 17 24 9 13 16 28 21 14 15 21 38 39 33 27 20 21 27 33 35 38 37 33 28 25 26 27
29 27 27 27 29 27 23 22 14 9 13 12 19 19 8 8 12 11 13 8 10 21 21 35 44 34 56 19 20 13 10 10 9 19 8 11 9 39 42 36 32 28 28 30 33 38 36 35 32 29 27 27 28 29
25 22 25 25 23 20 17 15 13 15 12 8 8 7 9 13 11 13 17 10 10 25 27 41 28 30 7 12 10 8 15 7 3 6 10 1 34 35 38 37 34 34 36 40 39 38 36 35 30 29 29 30 32 29
19 20 19 17 15 12 8 8 10 5 4 7 7 9 10 13 14 15 19 19 25 31 23 44 38 23 12 10 6 9 10 6 14 14 22 18 39 42 38 36 40 43 43 42 41 40 37 34 32 30 32 34 31 28
21 21 20 18 14 8 5 13 7 1 6 6 8 10 17 32 22 21 13 21 16 29 22 39 27 31 16 11 9 5 7 11 12 18 5 47 49 51 46 44 45 48 45 43 40 39 36 35 34 34 32 30 28 26
25 17 14 18 18 12 8 4 5 8 7 7 12 13 27 28 18 26 4 19 23 51 16 28 12 9 12 8 10 11 11 12 12 14 40 48 47 47 52 49 52 49 46 43 38 36 36 36 35 34 31 28 26 24
8 9 10 15 12 20 16 10 9 12 10 9 16 25 39 36 30 15 16 9 19 3 12 9 4 11 8 10 15 10 21 19 37 41 35 46 54 53 50 55 54 50 45 43 41 38 35 33 34 34 33 28 25 22
15 6 13 13 3 9 7 14 7 8 15 22 18 17 19 24 14 8 7 17 15 16 14 6 16 9 15 21 10 5 32 37 43 41 35 44 51 53 55 57 53 47 48 44 41 38 36 36 36 32 30 28 25 23
14 14 15 9 5 5 7 11 12 9 14 19 25 22 17 15 13 12 7 8 7 4 14 14 13 10 6 10 11 20 40 43 40 35 39 47 55 55 56 54 50 48 45 43 42 35 34 34 29 29 29 28 25 22
13 10 10 6 7 7 7 8 9 8 12 15 13 14 12 11 15 16 15 14 15 20 15 7 4 22 33 9 29 28 27 38 54 39 39 47 51 56 56 55 50 45 39 37 33 34 32 31 28 25 27 24 26 22
6 7 6 8 9 10 9 7 12 18 14 12 5 27 10 12 13 23 16 16 18 26 12 39 15 32 26 18 40 49 24 26 11 36 46 51 51 54 51 48 48 39 35 35 34 32 31 27 26 24 25 20 17 12
5 6 7 9 7 7 11 12 12 17 15 17 9 8 10 11 12 22 10 9 27 30 30 13 27 30 24 18 20 37 46 30 28 48 44 52 57 56 53 51 47 42 32 31 31 30 28 25 24 20 24 18 11 13
7 9 8 8 6 7 12 9 9 8 8 6 14 9 10 8 11 11 7 14 24 34 26 26 28 30 40 28 36 44 38 41 39 40 44 48 55 52 51 42 39 34 31 30 34 26 27 24 27 23 20 16 19 12
17 6 6 7 13 6 9 8 11 9 11 4 6 11 11 8 4 7 12 22 25 27 28 15 6 10 12 19 30 33 30 33 37 37 43 50 55 52 43 43 36 27 35 31 25 28 30 32 27 24 18 20 18 16
6 8 8 9 8 7 7 7 11 8 7 6 6 6 5 5 6 8 16 23 33 35 31 21 19 15 18 28 35 33 28 33 41 48 52 53 48 41 35 33 31 37 24 31 28 26 20 25 27 24 19 21 18 18
9 11 11 11 8 9 7 6 6 8 6 4 7 8 5 5 7 10 9 19 24 34 31 26 24 22 23 30 31 33 33 37 33 39 40 41 40 40 39 38 35 28 34 22 25 22 29 26 27 24 21 12 11 3
8 11 14 15 9 6 7 12 12 9 7 6 4 7 6 9 11 4 8 17 19 21 21 24 9 33 8 35 31 29 28 30 29 31 28 32 40 50 40 38 35 34 34 27 25 26 29 25 25 22 18 13 16 10
12 8 10 18 14 15 6 5 9 10 6 8 7 9 6 5 4 4 10 14 16 20 25 11 21 55 36 29 30 30 30 32 34 34 33 31 28 26 25 30 36 32 34 33 22 20 22 23 24 21 15 12 8 8
10 11 12 13 17 15 19 10 9 13 11 13 5 5 4 5 17 3 10 18 22 25 29 28 34 21 32 32 29 27 28 32 35 36 36 31 29 26 26 30 31 27 22 29 27 27 26 24 17 8 11 6 6 8
10 16 9 9 7 12 13 21 11 13 12 16 11 10 7 13 11 18 22 22 35 49 58 31 39 38 33 31 30 29 28 28 29 38 42 32 30 24 20 25 28 30 26 30 22 13 13 7 8 10 9 13 9 9
9 15 9 9 7 13 20 20 20 19 16 16 23 14 16 4 40 34 28 30 34 36 37 35 36 29 29 31 31 32 30 27 27 26 27 28 26 28 29 29 29 25 25 25 23 14 16 19 21 20 18 12 10 25
8 8 6 4 5 13 20 17 17 13 10 7 9 16 7 16 13 11 8 24 40 39 38 32 31 27 23 30 28 28 27 25 27 27 29 30 29 27 24 21 21 23 20 17 19 22 25 23 23 18 15 16 10 8
14 10 11 9 9 12 14 9 10 7 6 4 14 26 18 15 8 4 13 23 32 33 37 33 30 28 12 17 29 26 23 24 24 33 31 28 28 25 22 22 22 20 20 22 23 22 21 21 19 13 10 19 7 5
Wind_Direction_850mb
325 322 317 315 317 319 322 321 329 331 334 339 325 313 310 312 310 286 235 233 286 289 285 285 279 290 317 33 34 283 305 244 210 227 244 229 212 188 147 198 230 208 178 230 175 110 115 358 321 313 110 138 127 122
322 319 316 314 311 307 312 316 318 324 326 332 337 311 310 307 301 263 280 307 294 278 272 291 283 275 264 256 206 283 298 359 20 346 43 1 324 253 191 193 210 189 115 91 61 133 164 208 236 120 158 129 136 140
316 317 316 312 310 308 305 306 312 311 320 321 330 331 313 301 296 263 263 285 319 294 293 271 265 283 243 251 249 259 74 342 30 53 59 42 301 323 36 310 123 86 76 119 111 167 164 165 170 143 137 135 128 133
312 316 315 311 307 306 307 306 303 307 306 312 320 324 323 301 291 277 268 236 295 294 285 269 247 243 247 233 245 242 278 295 290 90 101 90 346 13 18 290 337 27 140 117 113 164 162 145 155 135 126 131 132 132
305 315 318 320 317 312 309 306 303 299 299 306 310 316 324 310 293 287 273 248 242 263 308 308 309 257 227 213 227 223 229 267 295 256 100 71 21 51 250 210 270 43 286 137 111 155 150 149 142 141 138 136 135 128
300 300 307 313 318 316 314 309 308 300 297 298 304 310 319 317 293 339 270 289 222 245 281 277 307 229 208 203 222 220 256 203 244 228 93 139 160 192 270 130 135 354 68 105 117 128 132 137 140 142 138 135 132 128
301 298 296 303 306 309 310 312 309 306 299 294 299 303 312 314 273 239 270 194 205 185 246 263 232 217 204 199 218 232 244 214 110 234 208 139 192 90 62 336 85 92 110 111 111 121 125 136 138 137 135 130 128 128
302 298 296 298 302 308 301 301 305 303 304 295 300 305 308 290 259 267 254 255 188 233 256 265 257 163 194 202 202 233 282 278 30 95 1 274 146 60 351 123 151 126 118 120 118 132 140 137 136 134 134 138 136 133
303 294 294 296 299 302 300 301 300 301 305 303 302 306 273 234 224 205 238 266 244 230 295 240 251 206 181 190 198 180 184 235 244 117 341 23 194 193 201 139 150 148 145 147 126 135 142 143 142 144 148 147 143 141
304 298 295 296 296 296 292 298 303 309 312 309 308 226 215 145 223 265 193 179 210 218 233 256 252 348 196 191 145 190 198 188 196 194 133 141 261 138 142 150 148 155 145 157 142 147 148 148 151 155 156 152 151 154
304 302 298 293 292 292 288 294 297 313 336 345 287 336 342 171 191 206 211 206 213 215 215 241 245 161 275 203 158 193 196 215 181 209 181 184 220 142 134 139 147 154 159 164 157 152 156 155 155 158 155 148 151 155
307 306 303 295 295 297 277 283 284 272 285 316 300 304 283 230 220 240 183 181 250 228 203 211 225 182 245 209 177 202 191 197 252 134 181 224 75 127 135 143 151 155 155 152 150 152 151 153 155 155 149 151 154 151
310 306 307 302 301 290 274 265 257 237 289 292 258 266 217 206 235 224 187 183 219 223 204 193 215 217 151 208 72 161 234 195 216 182 193 76 128 133 137 145 149 152 151 143 146 145 148 147 149 150 150 153 150 149
313 310 310 312 304 299 273 246 214 260 211 244 245 245 229 196 223 220 213 198 221 297 189 192 198 215 154 188 142 296 195 226 196 218 225 144 146 142 144 147 151 146 142 146 145 145 146 144 144 148 153 152 151 153
319 308 299 294 304 273 250 202 208 246 266 259 244 239 229 246 280 246 169 157 174 264 205 192 193 193 181 218 161 237 175 188 206 218 54 133 147 147 148 153 150 143 144 146 147 147 145 144 148 150 151 150 154 155
311 308 306 294 271 244 205 201 202 231 252 251 240 263 270 291 291 328 226 129 164 250 207 216 206 181 208 196 131 217 193 211 210 124 128 140 147 149 150 149 143 145 148 147 146 146 146 150 153 151 150 153 156 158
2 344 337 335 284 223 221 222 226 211 224 247 245 255 278 290 282 303 321 325 257 232 181 176 275 175 40 292 151 218 218 99 105 120 138 148 150 151 149 144 144 146 147 145 146 147 149 150 152 152 153 156 158 159
347 337 341 349 119 136 185 205 260 247 233 243 246 281 275 271 292 278 332 328 343 356 358 57 334 206 131 206 229 229 121 114 109 118 138 151 150 148 148 144 144 146 143 146 150 149 151 153 154 157 158 158 158 157
312 310 316 303 242 248 209 223 221 259 252 290 272 275 272 267 252 277 325 284 316 351 338 164 221 230 178 250 181 163 141 131 128 128 141 148 146 148 146 143 145 144 147 152 153 154 157 158 158 161 162 165 164 170
288 283 290 246 266 287 270 230 215 264 270 262 292 273 252 280 256 241 247 262 244 228 200 236 269 338 110 7 35 40 82 134 127 132 136 146 149 147 148 149 148 151 152 155 153 156 158 160 165 169 170 179 188 185
351 236 221 213 277 255 275 286 224 232 265 245 358 272 252 258 258 284 232 228 237 232 241 99 315 303 46 84 60 101 43 32 124 148 153 149 154 151 152 155 151 156 157 159 161 162 164 168 171 163 156 169 179 168
279 235 263 238 266 260 259 247 264 302 268 256 231 234 294 248 266 277 219 239 247 236 251 56 17 359 40 38 87 116 171 204 212 149 156 150 151 157 153 155 159 159 162 164 165 165 170 166 163 157 166 166 156 153
241 257 248 238 255 263 268 277 251 241 257 244 204 229 253 231 230 270 263 240 238 232 235 53 336 2 321 169 150 169 177 172 139 145 149 153 150 158 154 160 162 162 162 164 161 166 166 159 159 162 160 156 161 143
252 246 239 241 211 262 291 261 238 251 278 188 231 223 238 220 159 248 262 252 231 213 215 197 220 216 148 131 114 117 126 131 134 145 147 143 153 159 159 161 162 163 159 154 169 168 167 173 168 172 167 177 177 165
218 228 222 246 226 237 240 263 210 231 244 185 247 226 274 182 206 241 240 227 217 209 205 209 230 224 152 124 119 115 128 138 141 137 146 147 151 154 164 161 162 158 157 160 186 163 168 174 174 180 181 185 182 197
220 215 208 209 206 220 211 262 257 226 189 222 253 292 349 274 244 240 248 207 223 203 197 204 211 200 161 138 132 145 143 141 144 147 162 163 161 162 151 150 144 157 159 167 164 166 169 170 180 183 178 157 187 221
230 215 212 221 235 247 244 252 277 285 228 226 257 241 226 233 227 219 205 190 193 174 187 195 197 181 69 123 132 134 135 141 138 137 140 155 146 152 161 164 164 163 163 174 173 170 176 175 186 192 195 183 176 185
239 238 222 184 204 223 284 249 205 214 218 216 254 224 246 274 8 3 162 150 161 157 194 148 155 207 254 139 135 135 135 137 136 137 136 130 132 139 142 136 142 156 179 187 171 175 179 182 186 188 193 199 181 204
232 221 206 233 216 203 210 229 215 210 210 203 240 256 297 319 307 284 139 148 141 137 128 95 174 239 130 127 133 139 140 143 147 136 125 130 127 129 143 151 163 158 148 149 152 139 137 154 148 138 158 154 182 165
231 203 220 229 224 212 225 206 212 216 216 223 242 289 277 321 214 136 146 152 150 135 130 153 139 128 131 133 133 133 135 141 146 145 147 150 140 139 149 158 163 164 159 168 171 177 188 172 190 160 152 147 158 156
209 203 226 242 254 246 236 228 229 224 216 225 230 242 231 300 72 79 113 96 106 118 129 128 118 122 131 132 139 135 129 134 134 140 144 142 140 142 144 145 148 155 161 164 164 166 165 158 157 164 153 141 130 114
162 350 322 290 303 6 141 164 164 166 172 136 148 182 192 118 79 62 68 113 121 117 113 113 118 126 136 125 134 131 130 141 138 146 147 152 144 148 151 151 149 147 146 153 155 153 160 160 158 151 107 87 112 103
124 72 316 321 348 28 45 52 49 81 76 70 133 167 141 102 76 96 124 145 142 135 138 130 134 132 98 134 132 138 132 127 138 145 152 146 147 154 153 159 147 144 153 155 153 159 166 155 136 147 141 157 157 104